| time (UTC) | temp F | wind direction | speed knots | gust knots | rain 1hr in | rain 24hr in | rain mn in | humidity % | barometer mb |
| 20260504081535 | 47 | 96 | 0.0 | 0.0 | 0.00 | 0.00 | 0.00 | 89 | 1008.8 |
| 20260504050024 | 52 | 94 | 0.0 | 5.2 | 0.00 | 0.00 | 0.00 | 73 | 1010.4 |
| 20260504044515 | 49 | 105 | 0.9 | 5.2 | 0.00 | 0.00 | 0.00 | 77 | 1010.8 |
| 20260504043013 | 48 | 97 | 0.0 | 0.0 | 0.00 | 0.00 | 0.00 | 82 | 1010.4 |
| 20260504041507 | 48 | 97 | 0.0 | 2.6 | 0.00 | 0.00 | 0.00 | 81 | 1010.3 |
| 20260504040006 | 48 | 97 | 0.0 | 0.0 | 0.00 | 0.00 | 0.00 | 82 | 1010.3 |
| 20260504034506 | 48 | 97 | 0.0 | 2.6 | 0.00 | 0.00 | 0.00 | 80 | 1010.4 |
| 20260504033004 | 49 | 98 | 0.0 | 0.0 | 0.00 | 0.00 | 0.00 | 79 | 1010.4 |
| 20260504031507 | 49 | 98 | 0.0 | 0.0 | 0.00 | 0.00 | 0.00 | 78 | 1010.5 |
| 20260504030004 | 50 | 98 | 0.0 | 0.0 | 0.00 | 0.00 | 0.00 | 76 | 1010.5 |
| 20260504024504 | 49 | 94 | 2.6 | 4.3 | 0.00 | 0.00 | 0.00 | 75 | 1010.5 |
| 20260504023004 | 50 | 117 | 0.0 | 0.0 | 0.00 | 0.00 | 0.00 | 73 | 1010.7 |
| 20260504021503 | 51 | 117 | 0.0 | 0.0 | 0.00 | 0.00 | 0.00 | 73 | 1010.4 |
| 20260504020003 | 52 | 117 | 0.0 | 0.0 | 0.00 | 0.00 | 0.00 | 69 | 1010.3 |
| 20260504014501 | 52 | 117 | 0.0 | 0.0 | 0.00 | 0.00 | 0.00 | 65 | 1010.3 |
| 20260504013101 | 53 | 115 | 0.0 | 1.7 | 0.00 | 0.00 | 0.00 | 66 | 1010.1 |
| 20260504011601 | 53 | 104 | 1.7 | 4.3 | 0.00 | 0.00 | 0.00 | 62 | 1010.4 |
| 20260504010100 | 54 | 106 | 0.0 | 0.0 | 0.00 | 0.00 | 0.00 | 65 | 1010.7 |
| 20260504004559 | 55 | 106 | 0.0 | 0.0 | 0.00 | 0.00 | 0.00 | 57 | 1010.5 |
| 20260504003058 | 56 | 106 | 0.0 | 0.0 | 0.00 | 0.00 | 0.00 | 56 | 1010.5 |
| 20260504001601 | 57 | 106 | 0.0 | 0.0 | 0.00 | 0.00 | 0.00 | 51 | 1010.4 |
| 20260504000101 | 57 | 106 | 0.0 | 0.9 | 0.00 | 0.00 | 0.00 | 50 | 1010.4 |
| 20260503234625 | 59 | 100 | 0.0 | 4.3 | 0.00 | 0.00 | 0.00 | 51 | 1010.4 |
| 20260503233055 | 60 | 75 | 0.0 | 1.7 | 0.00 | 0.00 | 0.00 | 40 | 1010.4 |
| 20260503231555 | 61 | 81 | 0.0 | 5.2 | 0.00 | 0.00 | 0.00 | 42 | 1010.7 |
| 20260503230055 | 61 | 200 | 0.0 | 0.9 | 0.00 | 0.00 | 0.00 | 40 | 1011.0 |
| 20260503224554 | 61 | 190 | 0.0 | 2.6 | 0.00 | 0.00 | 0.00 | 40 | 1011.0 |
| 20260503223053 | 62 | 140 | 0.0 | 5.2 | 0.00 | 0.00 | 0.00 | 37 | 1011.4 |
| 20260503221558 | 62 | 107 | 2.6 | 7.8 | 0.00 | 0.00 | 0.00 | 38 | 1011.4 |
| 20260503220052 | 62 | 155 | 1.7 | 10.4 | 0.00 | 0.00 | 0.00 | 37 | 1011.4 |
| 20260503214551 | 62 | 76 | 3.5 | 8.7 | 0.00 | 0.00 | 0.00 | 37 | 1011.5 |
| 20260503213049 | 63 | 252 | 0.0 | 6.1 | 0.00 | 0.00 | 0.00 | 39 | 1011.5 |
| 20260503211546 | 62 | 174 | 2.6 | 11.3 | 0.00 | 0.00 | 0.00 | 36 | 1011.5 |
| 20260503210045 | 61 | 91 | 5.2 | 10.4 | 0.00 | 0.00 | 0.00 | 39 | 1011.4 |
| 20260503204545 | 61 | 86 | 0.9 | 9.6 | 0.00 | 0.00 | 0.00 | 41 | 1011.3 |
| 20260503203053 | 61 | 69 | 0.9 | 7.8 | 0.00 | 0.00 | 0.00 | 41 | 1011.6 |
| 20260503201541 | 61 | 130 | 0.9 | 7.8 | 0.00 | 0.00 | 0.00 | 41 | 1012.0 |
| 20260503200039 | 61 | 165 | 2.6 | 9.6 | 0.00 | 0.00 | 0.00 | 42 | 1012.2 |
| 20260503194541 | 60 | 75 | 4.3 | 9.6 | 0.00 | 0.00 | 0.00 | 41 | 1012.6 |
| 20260503193035 | 60 | 146 | 1.7 | 7.0 | 0.00 | 0.00 | 0.00 | 40 | 1013.1 |
| 20260503191536 | 59 | 179 | 3.5 | 10.4 | 0.00 | 0.00 | 0.00 | 39 | 1013.2 |
| 20260503190036 | 59 | 157 | 0.9 | 13.0 | 0.00 | 0.00 | 0.00 | 40 | 1013.4 |
| 20260503184531 | 59 | 195 | 0.9 | 13.9 | 0.00 | 0.00 | 0.00 | 39 | 1013.8 |
| 20260503183029 | 59 | 161 | 4.3 | 10.4 | 0.00 | 0.00 | 0.00 | 41 | 1013.9 |
| 20260503181525 | 58 | 296 | 2.6 | 10.4 | 0.00 | 0.00 | 0.00 | 42 | 1013.9 |
| 20260503180026 | 56 | 240 | 4.3 | 8.7 | 0.00 | 0.00 | 0.00 | 44 | 1014.3 |
| 20260503174523 | 57 | 200 | 4.3 | 10.4 | 0.00 | 0.00 | 0.00 | 44 | 1014.5 |
| 20260503173027 | 56 | 151 | 2.6 | 11.3 | 0.00 | 0.00 | 0.00 | 44 | 1014.7 |
| 20260503171519 | 57 | 291 | 1.7 | 7.0 | 0.00 | 0.00 | 0.00 | 49 | 1014.8 |